Location: Sevilla
(37.3933°N, 5.9839°W)
Time: 05:37:28
(UTC+02:00)

Transit 2A - Pass Details

Date: 04 July 2024
Orbit: 591 x 960 km, 66.7° (Epoch: 15 July)

Event Time Altitude Azimuth Distance (km) Brightness Sun altitude
Rises 13:37:57 0° 185° (S) 2,990 9.2 71.8°
Reaches altitude 10° 13:40:16 10° 177° (S) 2,132 8.7 72.1°
Maximum altitude 13:44:45 39° 110° (ESE) 1,108 7.9 72.6°
Drops below altitude 10° 13:49:44 10° 43° (NE) 2,371 8.6 73.2°
Sets 13:52:26 0° 36° (NE) 3,370 9.3 73.5°
